Overview Statistics Trail Chart Weather Telemetry Raw packets
 

This is the latest recevied weather packets stored in our database for station/object IR3AS. If no packets are shown the sender has not sent any weather packets the latest 10 day(s).

<< 122 123 124 125 126 127 128 >>
Time Temp. Humidity Pressure Rain* Wind** Luminosity Snow
1787735107 16.11° C 69% 869 hPa 0 mm - - -
1787734807 16.67° C 70% 869.2 hPa 0 mm - - -
1787734504 16.11° C 71% 869.5 hPa 0 mm - - -
1787734206 16.11° C 70% 869.6 hPa 0 mm - - -
1787733903 15.56° C 70% 869.9 hPa 0 mm - - -
1787733603 15.56° C 72% 870.3 hPa 0 mm - - -
1787733304 15.56° C 71% 870 hPa 0 mm - - -
1787733003 15° C 72% 869.5 hPa 0 mm - - -
1787732703 15° C 74% 869.2 hPa 0 mm - - -
1787732403 14.44° C 73% 868.3 hPa 0 mm - - -
1787732103 14.44° C 75% 868.5 hPa 0 mm - - -
1787731803 14.44° C 75% 868.3 hPa 0 mm - - -
1787731505 14.44° C 74% 868.4 hPa 0 mm - - -
1787731203 14.44° C 76% 868.6 hPa 0 mm - - -
1787730905 14.44° C 76% 869.1 hPa 0 mm - - -
1787730606 13.89° C 75% 869.2 hPa 0 mm - - -
1787730304 13.89° C 74% 869.2 hPa 0 mm - - -
1787730004 13.89° C 74% 868.6 hPa 0 mm - - -
1787729704 13.89° C 72% 868.4 hPa 0 mm - - -
1787729408 13.89° C 73% 868.3 hPa 0 mm - - -
1787729104 13.89° C 73% 868 hPa 0 mm - - -
1787728804 13.89° C 73% 868.2 hPa 0 mm - - -
1787728507 14.44° C 72% 868.5 hPa 0 mm - - -
1787728204 14.44° C 72% 868.6 hPa 0 mm - - -
1787727904 14.44° C 72% 869 hPa 0 mm - - -

* Rain latest hour (hover to see other rain measurements)
** Current wind speed in m/s (hover to see current wind gust speed)